Theta_e
315 315 314 314 313 313 312 311 310 308 306 305 305 304 303 303 302 296 292 296 289 283 284 288 288 284 284 284 284 290 291 294 291 287 286 286 283 287 283 284 283 282 283 280 280 280 275 292 291 288 293 295 296 295
314 314 314 314 313 313 312 312 310 309 308 307 306 304 303 303 303 302 294 298 298 290 286 291 291 291 290 288 286 288 290 289 295 289 287 287 284 283 282 280 285 281 285 282 283 282 290 292 292 295 296 298 297 296
312 313 313 313 313 313 313 312 310 309 308 307 306 305 304 303 303 301 293 297 294 289 287 285 285 290 293 292 293 283 287 292 292 292 292 290 285 286 281 283 288 289 289 285 286 289 290 292 294 296 297 296 296 298
309 309 309 309 310 311 312 311 311 310 309 308 306 306 305 303 304 302 294 297 295 290 283 282 290 287 291 292 291 291 289 290 291 287 286 290 288 290 285 287 286 288 289 287 286 289 291 292 293 295 295 296 295 295
305 305 305 306 306 307 308 309 310 310 310 309 307 306 305 303 302 298 295 296 297 290 280 282 289 290 291 290 289 290 289 288 287 284 287 290 291 290 288 287 285 289 288 285 285 291 291 293 294 296 295 295 295 295
302 302 302 303 303 304 304 306 307 308 309 308 307 306 304 301 300 293 287 292 295 296 286 279 286 286 288 289 289 288 290 289 288 285 286 293 296 292 285 283 290 291 291 293 290 293 294 295 294 294 293 293 293 293
300 300 300 300 301 301 302 303 304 305 307 308 307 305 303 301 297 289 287 293 296 292 285 279 276 286 292 292 287 289 290 289 288 286 286 286 290 295 289 284 290 291 292 293 294 294 291 294 293 293 293 293 294 292
299 299 299 299 299 300 301 301 302 303 304 307 306 304 302 300 298 293 296 299 295 288 286 279 276 281 294 288 282 288 287 289 288 288 290 291 294 293 288 291 293 292 291 292 292 292 292 292 292 291 292 292 290 290
298 298 299 299 299 299 300 300 301 302 303 306 304 301 297 294 287 289 299 300 295 290 282 281 272 272 293 290 289 286 289 283 289 286 288 292 290 286 290 292 293 291 291 291 290 290 290 289 289 289 289 289 288 289
299 299 299 299 299 299 300 300 301 302 303 302 295 290 286 290 299 297 293 288 287 288 287 281 282 278 287 290 288 287 288 286 282 286 293 289 287 292 294 293 289 290 291 290 288 285 285 284 287 286 287 289 289 289
299 299 299 299 299 300 301 301 301 301 298 292 288 287 294 298 292 289 285 283 284 280 283 284 283 280 291 287 286 288 285 287 284 287 287 285 285 289 286 284 285 286 287 288 289 290 290 290 288 287 287 288 290 291
299 299 299 299 300 300 301 302 302 295 292 292 291 295 294 289 286 282 282 283 281 279 285 284 286 286 290 293 289 290 285 286 282 290 287 283 287 284 283 283 285 287 288 289 290 289 289 289 288 288 289 290 290 290
299 299 299 299 300 301 302 302 301 298 296 293 289 285 286 285 279 278 270 280 282 286 288 289 288 291 293 293 289 288 284 283 290 284 282 285 285 284 284 285 286 287 289 288 288 289 288 288 288 288 287 287 288 289
299 299 300 300 301 301 302 302 301 296 290 284 283 279 281 279 281 280 282 285 288 288 290 291 288 287 290 288 289 282 287 287 281 280 280 284 285 284 285 286 287 287 287 287 287 287 287 286 286 287 286 285 285 284
300 301 301 301 302 302 302 301 298 293 287 282 283 275 277 281 285 286 285 286 288 290 290 289 287 289 285 285 286 283 281 279 281 281 282 283 283 283 284 286 287 286 286 285 285 285 285 285 285 284 284 284 283 282
301 301 300 302 302 302 301 297 292 290 285 285 283 281 281 279 280 285 285 285 290 290 290 288 285 284 284 284 280 279 278 278 279 283 283 281 282 283 283 285 286 284 283 282 282 282 282 282 282 282 281 279 280 282
303 297 302 302 302 300 296 288 287 284 282 282 276 283 281 280 281 283 288 288 289 288 285 285 283 281 284 281 279 283 281 280 285 282 279 281 283 282 282 282 283 282 281 281 280 280 280 280 280 278 276 277 277 279
295 298 302 302 295 292 287 285 284 280 276 276 277 277 283 283 282 285 286 287 286 285 285 284 285 279 281 279 280 282 282 282 277 278 279 281 281 280 281 281 281 281 280 279 278 275 275 274 277 276 274 274 274 275
297 299 301 297 293 287 283 283 283 275 273 277 280 280 280 281 284 284 284 287 287 287 284 284 283 275 279 284 284 285 282 279 281 281 281 283 282 280 280 277 277 276 275 274 276 275 275 275 275 275 274 275 275 276
297 297 296 295 292 284 280 277 282 273 271 277 278 277 277 279 281 279 278 282 283 284 282 281 280 281 282 285 283 283 281 281 281 280 280 280 280 274 277 277 278 276 275 274 272 277 272 274 275 275 274 275 275 275
292 292 292 289 285 283 279 280 279 280 280 278 278 280 279 280 279 279 280 281 278 276 274 279 282 283 280 281 283 282 282 282 281 281 281 276 279 276 274 274 272 276 275 274 273 273 277 274 273 272 266 274 276 276
289 292 286 286 281 279 276 278 278 280 279 278 278 279 277 276 276 277 277 276 278 275 278 281 279 278 277 279 278 277 280 280 279 280 284 282 277 274 274 275 273 273 273 272 272 271 272 272 272 272 272 272 275 273
289 287 283 281 277 275 273 276 272 276 274 275 270 273 266 264 266 268 270 269 274 275 276 276 276 274 275 275 275 276 276 275 276 277 278 278 277 275 273 274 276 273 272 273 272 271 269 276 275 273 271 272 271 271
287 280 277 275 275 271 273 267 273 268 267 268 263 264 264 264 265 264 265 270 275 276 276 276 274 275 273 271 270 272 274 274 274 271 271 272 271 273 276 276 277 275 275 272 271 270 269 271 276 271 269 269 268 268
279 276 276 270 270 270 267 265 263 265 262 260 262 262 263 263 264 263 267 274 276 277 277 277 277 277 275 274 274 274 272 273 272 271 272 272 270 269 269 271 275 275 274 270 271 271 269 268 269 269 269 269 268 266
272 274 272 271 269 269 268 265 262 262 261 259 260 260 260 262 262 265 269 271 272 274 275 275 276 275 276 277 276 275 277 275 274 273 274 274 275 274 272 270 269 273 273 275 270 271 270 269 269 268 268 270 276 271
272 272 275 275 273 271 268 269 269 265 259 260 259 260 259 260 261 269 272 270 271 271 273 274 275 275 275 276 277 277 275 275 276 275 273 271 272 274 275 274 273 275 273 272 272 271 271 270 270 269 268 265 265 266
274 271 268 267 267 266 265 264 262 262 263 267 267 260 261 264 268 271 271 269 268 267 267 268 271 274 274 274 272 273 271 270 269 270 272 274 274 274 274 275 275 280 272 272 272 270 270 270 269 268 266 266 264 262
269 271 270 263 262 263 264 265 265 267 271 268 265 264 265 269 268 267 270 267 262 265 267 270 273 268 270 266 266 267 268 269 270 270 271 273 271 275 271 273 273 271 268 269 279 273 267 265 266 266 266 265 265 263
268 269 266 261 264 266 265 265 264 262 266 268 268 266 267 267 269 266 265 262 265 269 273 273 269 267 273 266 269 266 268 271 273 274 273 274 273 269 264 266 268 268 267 268 267 266 276 270 269 267 268 264 261 261
268 264 262 261 263 261 261 260 259 265 261 259 258 263 266 265 267 268 271 274 275 274 263 270 272 269 269 266 264 264 269 268 270 271 272 267 265 265 264 263 263 264 265 265 264 263 262 261 260 260 260 259 260 265
266 261 263 264 264 260 258 258 256 257 256 257 260 255 259 260 262 268 265 263 263 268 274 274 268 274 265 266 263 265 277 265 263 264 264 265 265 264 264 263 261 263 263 262 261 260 259 259 259 259 260 260 260 260
257 256 257 257 260 261 260 259 259 259 257 256 259 258 257 262 265 269 263 259 263 262 262 260 258 258 259 259 260 260 267 260 262 273 274 274 274 269 262 261 262 262 262 261 260 260 259 258 258 258 259 261 262 262
Wind_Speed
14 16 17 16 16 15 14 13 12 10 8 8 8 6 4 5 4 4 3 4 4 4 7 6 5 4 4 3 3 3 5 2 2 4 4 4 4 5 3 5 7 7 6 4 4 4 8 5 3 4 3 2 4 4
10 13 14 14 12 12 13 14 14 13 12 10 10 8 7 7 8 3 2 2 3 4 7 7 11 13 9 9 3 4 3 1 4 3 3 3 3 2 6 3 3 3 7 6 8 6 5 5 4 3 3 4 3 4
11 11 10 10 11 12 13 14 13 13 13 13 13 11 10 8 9 5 3 1 1 4 8 3 7 8 11 16 13 5 4 5 3 8 4 4 4 4 4 6 4 4 5 3 2 4 7 7 4 5 4 3 3 3
10 7 6 5 2 6 10 12 13 13 15 17 15 14 11 8 9 5 2 3 2 3 6 5 4 6 5 8 12 17 13 8 5 5 6 3 3 4 4 4 5 6 5 6 4 5 4 4 6 8 6 6 4 3
10 8 6 4 3 3 4 5 10 12 15 18 17 15 12 6 4 3 2 4 5 3 5 10 13 16 14 14 14 10 11 7 1 1 5 4 3 2 0 2 3 4 6 5 5 5 4 2 1 6 7 5 4 2
10 7 5 2 2 4 6 6 8 11 13 15 16 15 11 6 1 3 3 3 2 4 3 6 4 5 5 10 10 10 9 5 3 4 4 7 4 4 3 4 6 6 3 6 6 3 3 5 3 2 5 4 3 1
7 4 3 2 3 5 6 7 9 11 13 15 18 15 13 10 4 3 5 3 3 3 2 7 6 5 5 1 2 3 6 3 3 3 4 3 7 2 1 4 4 6 6 7 6 7 3 4 4 5 5 4 2 1
3 1 2 4 6 7 8 9 10 12 14 14 15 16 13 8 4 5 6 8 6 3 2 5 7 5 3 3 2 2 4 3 5 3 2 5 6 2 4 8 7 6 4 5 7 4 6 6 4 2 2 1 1 1
1 3 4 5 6 7 8 9 11 13 15 8 11 15 4 1 2 3 3 12 3 3 3 4 3 6 0 3 3 1 3 4 4 5 5 4 4 6 7 6 5 4 6 7 5 7 6 4 3 2 1 2 2 3
4 6 6 6 7 8 9 9 9 12 12 17 4 2 3 4 14 4 2 2 2 4 4 5 2 6 2 3 3 3 3 3 5 6 3 5 4 4 3 3 5 4 5 8 6 3 3 2 2 2 2 1 1 2
7 8 7 8 8 9 11 11 10 5 13 2 1 2 2 8 2 2 3 4 4 4 5 4 8 6 3 4 3 4 3 3 2 4 5 2 3 2 4 6 4 5 6 6 6 5 6 5 3 1 1 2 3 3
10 9 9 10 10 12 12 10 4 6 3 5 3 2 2 2 2 3 4 3 5 5 4 4 5 6 4 5 4 3 1 1 2 3 2 3 2 2 4 4 4 4 6 7 5 5 4 4 2 1 1 2 3 5
13 11 12 14 14 13 12 8 13 20 12 2 1 2 2 3 5 5 5 4 4 3 3 3 2 2 2 2 1 0 1 1 2 1 2 3 2 4 5 5 5 5 5 5 5 4 3 2 2 1 1 2 3 4
17 15 16 17 17 14 12 6 26 17 5 2 4 4 4 4 6 5 3 2 2 3 4 3 0 2 3 1 1 1 1 2 1 2 4 2 4 6 5 5 5 5 4 5 5 4 3 3 2 2 1 2 3 4
21 19 19 20 16 12 10 24 23 5 3 4 4 5 7 4 2 1 1 3 3 2 3 2 2 2 2 1 1 2 1 1 3 3 3 2 4 6 6 4 6 6 5 4 4 3 4 3 3 3 4 4 4 4
24 22 15 19 15 11 29 21 5 2 1 2 3 3 3 1 3 2 2 2 2 3 2 2 2 2 1 0 1 2 2 2 3 2 2 2 5 5 5 5 5 5 5 4 4 3 4 4 3 2 3 4 4 4
23 6 20 19 17 32 25 6 3 3 5 5 3 3 1 1 3 1 2 1 2 2 2 1 3 2 1 1 1 1 2 3 2 3 2 3 5 5 5 5 5 5 5 4 3 3 2 2 2 3 4 4 4 4
1 7 25 29 24 11 3 3 3 4 5 4 3 2 3 2 1 1 1 1 2 1 1 2 1 1 2 2 2 2 2 2 2 2 2 1 3 5 6 6 6 5 5 4 3 2 2 2 3 1 0 2 3 3
7 11 26 33 12 7 3 2 1 4 4 2 1 1 1 1 1 1 1 2 2 2 2 2 3 3 3 2 1 1 2 2 2 2 2 0 3 5 5 3 4 3 4 4 3 2 2 3 2 2 0 1 1 2
26 22 21 15 6 4 4 2 0 3 3 2 2 0 2 0 2 2 2 2 3 2 2 3 3 2 3 3 3 2 2 2 1 2 2 2 1 3 5 5 4 4 4 2 1 3 1 1 2 2 2 1 1 2
10 7 10 5 4 5 4 3 2 1 2 1 0 1 1 1 2 2 2 2 1 4 3 3 3 2 1 2 2 2 2 2 2 3 3 2 3 3 2 3 3 4 4 4 4 4 6 4 3 3 2 2 2 2
3 9 4 5 4 4 5 3 1 1 1 1 1 0 1 1 1 1 2 2 4 4 3 3 2 2 1 2 2 3 2 2 3 3 4 2 1 0 2 4 4 4 4 4 4 4 4 3 3 2 3 3 2 1
8 6 4 3 4 4 1 2 3 1 3 3 2 1 2 1 3 1 2 4 4 4 2 1 1 1 3 4 3 4 3 4 4 4 4 4 4 3 2 3 4 5 4 4 3 4 3 6 5 3 2 2 1 1
8 5 3 2 3 2 2 3 1 2 3 2 3 2 3 3 2 3 3 4 4 1 1 2 2 2 2 2 2 3 3 3 2 2 3 3 2 4 4 4 4 4 4 2 3 3 2 3 5 2 3 3 3 3
4 2 3 2 2 4 3 1 2 3 2 2 2 3 3 2 1 2 3 4 2 2 2 2 2 2 2 3 3 3 3 3 3 3 3 4 2 1 2 2 4 4 3 4 3 4 3 2 3 4 4 4 5 5
4 2 2 4 1 3 4 3 3 6 3 1 4 3 2 3 2 5 4 4 3 3 3 4 4 2 3 4 3 2 3 3 3 2 4 4 4 4 4 3 2 5 6 6 4 6 6 5 5 6 5 7 11 6
4 2 1 1 2 4 3 2 2 3 3 5 3 2 3 1 5 6 3 3 3 4 3 3 4 4 4 4 3 3 2 3 4 3 1 2 3 4 5 5 6 6 4 6 6 6 6 6 5 6 6 3 5 5
2 2 4 2 2 1 4 2 3 5 3 2 3 2 7 8 6 4 5 4 3 2 2 3 4 4 4 4 2 1 2 0 2 3 3 5 7 6 6 6 6 9 4 5 6 5 5 5 5 5 5 5 4 4
2 1 3 3 2 1 3 4 4 3 2 4 4 3 5 4 4 3 4 3 2 2 2 4 5 2 4 2 2 3 3 3 2 4 6 6 3 5 4 5 5 3 2 3 8 7 6 4 5 5 6 4 4 3
1 0 4 2 3 0 4 3 3 3 1 3 2 3 4 5 6 2 2 1 3 7 9 6 4 4 6 3 4 4 5 6 7 8 7 8 5 3 1 2 3 3 3 3 3 1 3 1 2 2 2 0 1 2
1 3 4 2 2 3 3 2 3 2 2 2 1 4 5 5 6 5 7 7 8 5 1 7 7 5 5 4 4 2 5 4 8 9 7 3 3 3 3 3 2 3 3 4 3 3 2 1 1 1 1 4 6 5
3 3 3 1 3 3 3 3 2 1 3 2 4 1 4 4 5 6 3 2 1 4 11 8 4 8 3 3 2 3 7 2 4 4 6 4 3 4 3 3 3 4 4 4 3 3 3 3 2 3 3 6 7 7
3 3 2 3 5 5 4 3 4 5 2 3 5 3 3 3 7 6 2 2 2 1 2 2 3 2 2 3 3 3 4 3 4 5 5 5 5 6 3 3 3 4 5 4 3 3 4 3 3 4 5 7 7 7
Wind_Direction
180 196 203 208 206 208 214 220 228 231 228 226 233 239 273 290 282 122 253 185 147 243 279 248 276 258 315 276 236 355 319 186 215 179 185 208 211 213 192 193 167 172 183 180 184 221 268 158 106 186 184 115 112 104
181 195 206 208 205 208 220 219 218 223 219 224 231 227 246 265 269 221 253 226 178 223 260 291 260 245 221 237 233 239 281 336 272 203 190 190 215 168 169 244 130 187 186 182 177 211 229 201 191 170 151 142 156 139
188 190 198 208 210 207 217 225 224 237 229 222 225 226 235 250 258 244 211 180 33 262 275 253 263 270 238 232 213 202 235 190 2 353 292 234 214 133 174 231 181 231 172 206 108 246 204 186 196 164 163 152 152 151
125 131 118 99 54 254 228 226 228 234 233 234 231 230 229 240 264 262 211 179 164 289 276 280 300 285 280 240 201 212 241 281 341 16 312 225 212 156 206 222 177 197 139 188 248 278 303 227 199 173 148 132 132 167
129 119 102 73 26 356 348 326 272 249 235 231 228 229 221 228 280 307 241 219 172 201 281 293 294 281 264 235 238 212 217 215 195 102 273 236 220 128 172 75 244 186 187 163 219 231 192 220 266 145 144 148 145 181
123 117 103 72 356 335 338 332 328 323 272 226 222 224 190 167 119 73 328 326 177 176 308 297 285 269 257 216 225 212 187 166 144 194 212 253 268 141 171 217 229 216 215 188 192 165 104 127 114 85 126 137 128 161
92 79 59 5 344 332 326 327 332 320 313 254 219 188 172 181 160 164 190 158 109 69 336 294 298 265 240 147 50 106 138 142 157 195 223 256 307 188 181 215 233 223 166 144 151 123 126 174 202 156 127 123 129 179
89 39 329 323 331 331 331 327 314 314 308 291 194 177 166 181 208 250 248 183 123 101 223 270 273 302 214 174 122 133 138 167 191 219 254 248 228 154 221 242 238 226 182 145 153 115 128 127 124 134 91 102 97 302
220 270 282 298 308 311 312 303 302 309 305 288 153 127 103 160 172 245 277 169 120 158 248 233 233 271 332 205 130 179 172 171 194 211 210 203 219 211 207 219 233 185 177 173 124 113 120 138 154 121 3 317 292 302
242 261 277 300 302 304 305 297 288 303 332 124 89 130 201 216 129 101 56 157 175 184 218 247 259 271 277 213 197 170 192 227 180 207 160 209 257 233 203 132 111 121 130 129 125 163 138 166 187 145 113 21 13 307
253 266 289 299 298 300 285 276 276 32 84 67 142 186 121 96 77 180 203 217 177 231 211 230 226 245 233 243 185 197 216 210 166 131 191 234 256 198 100 91 71 77 91 79 86 102 95 105 142 149 338 328 304 309
263 273 282 281 278 275 275 275 277 109 132 168 169 88 103 168 166 232 225 194 219 239 201 210 219 208 248 211 208 216 254 341 112 119 178 255 215 103 121 119 110 109 102 87 80 99 95 105 117 177 299 333 337 318
268 276 274 270 266 262 260 261 157 120 100 65 108 145 186 156 198 211 222 212 230 207 240 219 265 298 264 236 206 229 199 81 82 135 241 243 133 142 134 117 93 87 89 91 91 87 93 94 92 75 51 12 336 338
267 262 258 254 251 249 253 230 151 134 87 140 181 184 220 220 233 191 225 283 312 305 312 287 191 275 285 278 250 112 77 107 183 235 234 252 195 157 144 124 124 126 118 111 110 109 109 106 115 127 86 13 357 359
257 251 244 242 235 228 233 148 143 83 151 161 180 218 216 221 285 237 232 286 273 282 297 278 302 259 284 293 5 78 76 253 223 241 242 243 151 141 139 141 139 143 148 151 143 121 89 72 76 76 55 34 21 14
257 249 223 224 213 220 146 129 87 104 71 160 216 246 231 98 273 228 221 249 264 288 305 282 266 264 234 23 85 229 156 234 265 272 273 136 152 155 156 157 149 147 149 137 121 111 99 77 72 56 71 35 10 14
248 225 173 185 153 134 125 95 102 143 198 195 230 219 209 226 209 263 314 285 327 290 265 293 244 224 54 81 297 279 216 244 289 292 272 195 174 167 154 146 143 141 139 139 128 101 101 47 62 69 45 1 1 21
112 169 154 145 128 99 70 73 115 141 197 221 186 189 201 228 141 238 254 292 278 247 232 247 317 177 192 190 228 279 301 283 238 258 262 198 149 154 159 163 168 162 155 141 130 144 91 73 102 109 77 323 3 10
132 138 134 134 126 98 101 113 115 161 226 210 216 76 133 307 345 31 265 253 263 281 278 265 252 205 207 164 123 269 276 267 305 316 324 203 171 172 168 131 132 128 134 151 179 190 187 182 188 186 229 23 15 324
104 103 101 98 84 93 93 37 80 118 166 224 71 93 172 164 12 2 310 276 270 269 242 226 229 227 170 190 180 195 220 241 204 341 304 281 193 141 176 169 184 170 163 162 201 190 126 238 226 206 208 233 282 302
78 76 59 61 51 57 93 129 80 1 99 175 245 67 214 133 251 242 225 33 266 224 237 226 229 251 29 122 155 183 246 219 218 193 220 283 222 175 187 203 169 172 186 200 207 235 218 219 224 195 173 234 243 264
73 58 69 25 69 49 67 5 115 70 86 82 108 335 213 217 223 174 8 233 236 244 212 212 233 157 18 314 258 206 242 248 272 267 268 210 150 183 233 199 166 208 209 211 195 207 220 218 195 191 187 239 258 247
83 51 50 52 77 56 359 11 89 345 169 178 40 199 286 271 232 38 254 235 254 245 215 204 203 179 217 293 323 298 242 207 239 247 254 243 236 227 218 204 193 190 223 245 193 188 205 211 225 196 210 238 209 252
48 56 74 79 72 115 58 8 38 66 26 86 111 240 284 228 324 62 249 253 246 244 202 217 157 330 348 355 285 266 268 202 224 278 244 176 216 253 219 225 208 211 206 186 182 197 196 216 212 193 200 213 232 237
94 20 103 59 359 110 114 81 1 76 166 226 128 297 277 41 107 245 234 261 248 233 221 166 154 183 196 254 267 274 258 167 185 232 259 188 178 10 321 285 252 234 167 157 184 182 212 200 206 210 215 211 231 247
88 6 118 169 192 136 166 128 182 195 156 182 220 250 38 88 77 242 232 224 225 203 188 185 181 185 250 216 239 265 245 181 140 183 266 187 189 180 208 209 257 276 197 199 155 198 213 205 208 218 233 248 249 239
123 169 139 31 110 106 75 40 55 120 154 189 204 121 78 111 251 252 275 243 191 229 201 182 170 185 211 236 238 243 198 181 198 205 261 240 230 211 194 204 224 237 185 185 186 185 196 201 208 214 229 229 224 222
132 151 153 219 72 80 135 123 149 188 219 207 97 162 176 194 235 240 218 244 214 213 244 248 226 220 231 238 230 260 288 265 330 307 273 249 228 224 222 232 231 235 203 193 193 182 189 190 195 202 207 220 233 232
69 28 97 48 10 48 182 157 196 232 185 130 157 237 241 232 237 236 252 214 158 116 265 267 271 190 249 275 243 210 181 158 140 266 269 266 305 277 214 217 214 205 166 184 204 185 189 171 183 186 202 206 224 225
272 90 100 85 93 348 249 176 222 252 228 191 214 321 299 268 244 195 164 154 197 226 232 226 217 167 250 194 259 283 217 204 206 215 239 249 240 265 266 207 197 179 161 161 166 61 238 141 358 43 133 290 318 296
9 59 62 59 201 253 244 287 319 322 345 281 276 187 243 296 302 247 215 225 234 238 202 264 262 214 222 226 195 232 277 239 216 224 237 224 219 218 223 219 192 143 139 141 141 141 133 121 144 177 269 276 285 296
37 70 119 69 293 296 14 40 333 328 314 358 274 298 322 355 279 282 266 106 159 249 246 240 225 263 220 234 239 242 241 238 214 213 218 222 220 216 177 148 131 127 129 133 141 141 145 165 190 223 249 269 274 277
39 32 43 37 353 348 313 40 10 323 318 272 262 213 219 212 249 273 311 80 182 266 297 270 248 249 262 254 248 267 282 221 244 225 228 219 209 181 158 142 135 134 139 137 148 146 171 193 234 245 260 267 274 277